星链-3129 (STARLINK-3129 )

导读 | 豆包AI

STARLINK-3129是美国SpaceX公司星链(Starlink)星座中的一颗低轨通信卫星,于2021年11月13日发射入轨。星链项目旨在构建全球卫星互联网,为全球偏远、无网络覆盖区域提供低时延高速宽带服务。该卫星运行于近地轨道,搭载相控阵天线与通信载荷,依托星链星座的激光互联网络,可实现全球范围的互联网接入,支撑地面终端及未来直连手机的通信服务。

基本信息
目录编号:
49453
目录名称:
STARLINK-3129
国际标识:
2021-104AX
轨道中心:
EARTH
卫星名称:
星链-3129
卫星全名:
星链-3129 (STARLINK-3129 )
卫星状态:
在轨 (已飞行1629 天)
发射日期:
2021-11-13 UTC
国别 :
美国 (US)
星等 :
--
轨道信息
数据来源 国际轨道数据
星历时间: 2026-04-30T08:24:08+0800
22小时前
查看轨道信息
半长轴: 6917.891km
偏心率: 0.0001461
轨道倾角: 53.219°
近地点辐角 81.724°
升交点赤经 348.792°
平近点角 278.392°
近地点: 538.743km
远地点: 540.765km
周期: 95.438分钟
每日圈数: 15.088366
详细信息
固有亮度:
5
最大亮度:
2.5
卫星平台:
Starlink v1.5
覆盖范围:
全球
运营商:
太空探索技术公司
运营商所在国:
美国
制造商(研发单位):
太空探索技术公司
制造商所在国:
美国
使用方式:
暂无
卫星简介
星链(Starlink)计划是由太空探索技术公司(SpaceX)提出的一个巨型低轨卫星互联网星座项目,计划在2019年至2024年间在太空搭建由约1.2万颗卫星组成的“星链”网络,其中1584颗将部署在地球上空550千米处的近地轨道,并从2020年开始工作。该卫星仍在工作。
2D轨道图
3D轨道图
轨道高度分析图
轨道倾角分析图
轨道综合分析图
查看轨道综合分析图